Location: Iesi
(43.5167°N, 13.2333°E)
Time: 02:34:46
(UTC+00:00)

SWAS - Pass Details

Date: 08 August 2020
Orbit: 579 x 592 km, 69.9° (Epoch: 27 September)

Event Time Altitude Azimuth Distance (km) Brightness Sun altitude
Rises 19:41:56 0° 196° (SSW) 2,799 7.7 -13.6°
Reaches altitude 10° 19:44:10 10° 193° (SSW) 1,906 6.8 -13.9°
Maximum altitude 19:48:23 62° 113° (ESE) 665 4.4 -14.5°
Drops below altitude 10° 19:52:39 10° 33° (NNE) 1,927 7.2 -15.1°
Sets 19:54:54 0° 30° (NNE) 2,834 8.1 -15.4°
